| time (UTC) | temp C | wind direction | speed KPH | gust KPH | rain 1hr cm | rain 24hr cm | rain mn cm | humidity % | barometer mb |
| 20260508110041 | 13 | 15 | 1.6 | 16.1 | 0.00 | 0.00 | 0.00 | 29 | 1026.9 |
| 20260508104543 | 14 | 340 | 3.2 | 14.5 | 0.00 | 0.00 | 0.00 | 31 | 1027.0 |
| 20260508103044 | 13 | 64 | 3.2 | 17.7 | 0.00 | 0.00 | 0.00 | 31 | 1027.2 |
| 20260508101541 | 13 | 5 | 1.6 | 12.9 | 0.00 | 0.00 | 0.00 | 29 | 1027.1 |
| 20260508100034 | 13 | 323 | 3.2 | 12.9 | 0.00 | 0.00 | 0.00 | 36 | 1027.0 |
| 20260508094543 | 13 | 344 | 4.8 | 14.5 | 0.00 | 0.00 | 0.00 | 33 | 1026.9 |
| 20260508093032 | 12 | 331 | 1.6 | 14.5 | 0.00 | 0.00 | 0.00 | 33 | 1026.9 |
| 20260508091544 | 13 | 337 | 6.4 | 17.7 | 0.00 | 0.00 | 0.00 | 36 | 1027.0 |
| 20260508090032 | 12 | 315 | 8.0 | 16.1 | 0.00 | 0.00 | 0.00 | 35 | 1027.0 |
| 20260508084524 | 12 | 10 | 6.4 | 14.5 | 0.00 | 0.00 | 0.00 | 37 | 1027.2 |
| 20260508083023 | 12 | 329 | 1.6 | 16.1 | 0.00 | 0.00 | 0.00 | 38 | 1027.0 |
| 20260508081531 | 11 | 325 | 3.2 | 9.7 | 0.00 | 0.00 | 0.00 | 39 | 1027.1 |
| 20260508080019 | 12 | 315 | 3.2 | 12.9 | 0.00 | 0.00 | 0.00 | 40 | 1027.0 |
| 20260508074517 | 11 | 313 | 1.6 | 16.1 | 0.00 | 0.00 | 0.00 | 41 | 1026.9 |
| 20260508073017 | 10 | 355 | 1.6 | 9.7 | 0.00 | 0.00 | 0.00 | 44 | 1026.8 |
| 20260508071519 | 10 | 306 | 3.2 | 8.0 | 0.00 | 0.00 | 0.00 | 46 | 1026.8 |
| 20260508070009 | 9 | 301 | 1.6 | 14.5 | 0.00 | 0.00 | 0.00 | 47 | 1026.7 |
| 20260508064507 | 8 | 312 | 3.2 | 12.9 | 0.00 | 0.00 | 0.00 | 48 | 1026.5 |
| 20260508063004 | 8 | 336 | 3.2 | 9.7 | 0.00 | 0.00 | 0.00 | 48 | 1026.5 |
| 20260508061600 | 7 | 320 | 3.2 | 8.0 | 0.00 | 0.00 | 0.00 | 54 | 1026.3 |
| 20260508060056 | 7 | 322 | 3.2 | 6.4 | 0.00 | 0.00 | 0.00 | 58 | 1026.1 |
| 20260508054602 | 6 | 326 | 1.6 | 6.4 | 0.00 | 0.00 | 0.00 | 64 | 1026.0 |
| 20260508053052 | 4 | 315 | 0.0 | 4.8 | 0.00 | 0.00 | 0.00 | 68 | 1025.9 |
| 20260508051545 | 3 | 325 | 3.2 | 6.4 | 0.00 | 0.00 | 0.00 | 71 | 1025.8 |
| 20260508050043 | 1 | 317 | 1.6 | 4.8 | 0.00 | 0.00 | 0.00 | 75 | 1025.6 |
| 20260508044535 | 0 | 321 | 3.2 | 6.4 | 0.00 | 0.00 | 0.00 | 80 | 1025.5 |
| 20260508043033 | 0 | 328 | 3.2 | 6.4 | 0.00 | 0.00 | 0.00 | 82 | 1025.5 |
| 20260508041530 | -1 | 315 | 1.6 | 4.8 | 0.00 | 0.00 | 0.00 | 84 | 1025.3 |
| 20260508040031 | -2 | 315 | 0.0 | 0.0 | 0.00 | 0.00 | 0.00 | 85 | 1025.1 |
| 20260508034535 | -2 | 315 | 0.0 | 0.0 | 0.00 | 0.00 | 0.00 | 87 | 1025.0 |
| 20260508033026 | -3 | 315 | 0.0 | 0.0 | 0.00 | 0.00 | 0.00 | 88 | 1024.8 |
| 20260508031525 | -4 | 315 | 0.0 | 0.0 | 0.00 | 0.00 | 0.00 | 88 | 1024.7 |
| 20260508030026 | -4 | 315 | 0.0 | 0.0 | 0.00 | 0.00 | 0.00 | 88 | 1024.6 |
| 20260508024526 | -4 | 315 | 0.0 | 0.0 | 0.00 | 0.00 | 0.00 | 88 | 1024.4 |
| 20260508023020 | -4 | 315 | 0.0 | 0.0 | 0.00 | 0.00 | 0.00 | 88 | 1024.2 |
| 20260508021519 | -4 | 315 | 0.0 | 0.0 | 0.00 | 0.00 | 0.00 | 88 | 1023.9 |
| 20260508020013 | -4 | 315 | 0.0 | 1.6 | 0.00 | 0.00 | 0.00 | 87 | 1023.8 |
| 20260508014511 | -3 | 315 | 0.0 | 1.6 | 0.00 | 0.00 | 0.00 | 87 | 1023.6 |
| 20260508013010 | -3 | 315 | 0.0 | 0.0 | 0.00 | 0.00 | 0.00 | 87 | 1023.6 |
| 20260508011512 | -3 | 315 | 0.0 | 1.6 | 0.00 | 0.00 | 0.00 | 86 | 1023.4 |
| 20260508010006 | -3 | 315 | 0.0 | 3.2 | 0.00 | 0.00 | 0.00 | 86 | 1023.3 |
| 20260508004503 | -3 | 315 | 1.6 | 6.4 | 0.00 | 0.00 | 0.00 | 86 | 1023.0 |
| 20260508003000 | -3 | 316 | 3.2 | 6.4 | 0.00 | 0.00 | 0.00 | 86 | 1022.8 |
| 20260508001604 | -3 | 315 | 4.8 | 6.4 | 0.00 | 0.00 | 0.00 | 85 | 1022.6 |
| 20260508000058 | -3 | 320 | 1.6 | 6.4 | 0.00 | 0.00 | 0.00 | 85 | 1022.5 |
| 20260507234555 | -2 | 312 | 1.6 | 6.4 | 0.00 | 0.00 | 0.00 | 84 | 1022.4 |
| 20260507233053 | -2 | 319 | 3.2 | 8.0 | 0.00 | 0.00 | 0.00 | 83 | 1022.2 |
| 20260507231552 | -2 | 319 | 3.2 | 6.4 | 0.00 | 0.00 | 0.00 | 83 | 1022.1 |
| 20260507230052 | -2 | 318 | 3.2 | 6.4 | 0.00 | 0.00 | 0.00 | 82 | 1021.9 |
| 20260507224547 | -2 | 318 | 0.0 | 1.6 | 0.00 | 0.00 | 0.00 | 82 | 1021.8 |
| 20260507223043 | -1 | 318 | 0.0 | 3.2 | 0.00 | 0.00 | 0.00 | 80 | 1021.6 |
| 20260507221540 | -1 | 318 | 0.0 | 1.6 | 0.00 | 0.00 | 0.00 | 80 | 1021.5 |
| 20260507220038 | -1 | 318 | 0.0 | 1.6 | 0.00 | 0.00 | 0.00 | 78 | 1021.3 |
| 20260507214539 | -1 | 318 | 0.0 | 1.6 | 0.00 | 0.00 | 0.00 | 76 | 1021.1 |
| 20260507213042 | 0 | 318 | 1.6 | 6.4 | 0.00 | 0.00 | 0.00 | 76 | 1020.8 |
| 20260507211543 | 0 | 317 | 4.8 | 8.0 | 0.00 | 0.00 | 0.00 | 74 | 1020.6 |
| 20260507210027 | 0 | 316 | 1.6 | 6.4 | 0.00 | 0.00 | 0.00 | 72 | 1020.5 |
| 20260507204525 | 0 | 313 | 3.2 | 6.4 | 0.00 | 0.00 | 0.00 | 71 | 1020.3 |
| 20260507203022 | 0 | 313 | 4.8 | 6.4 | 0.00 | 0.00 | 0.00 | 69 | 1020.0 |
| 20260507201533 | 1 | 320 | 1.6 | 6.4 | 0.00 | 0.00 | 0.00 | 66 | 1019.7 |
| 20260507200022 | 2 | 320 | 0.0 | 4.8 | 0.00 | 0.00 | 0.00 | 63 | 1019.5 |
| 20260507194518 | 3 | 317 | 1.6 | 6.4 | 0.00 | 0.00 | 0.00 | 60 | 1019.4 |
| 20260507193021 | 3 | 319 | 3.2 | 12.9 | 0.00 | 0.00 | 0.00 | 57 | 1019.2 |
| 20260507191522 | 4 | 317 | 4.8 | 12.9 | 0.00 | 0.00 | 0.00 | 56 | 1018.9 |
| 20260507190016 | 5 | 317 | 0.0 | 4.8 | 0.00 | 0.00 | 0.00 | 52 | 1018.8 |
| 20260507184512 | 6 | 321 | 1.6 | 6.4 | 0.00 | 0.00 | 0.00 | 50 | 1018.6 |
| 20260507183011 | 6 | 320 | 6.4 | 16.1 | 0.00 | 0.00 | 0.00 | 48 | 1018.6 |
| 20260507181509 | 7 | 319 | 1.6 | 8.0 | 0.00 | 0.00 | 0.00 | 45 | 1018.4 |
| 20260507180019 | 7 | 318 | 6.4 | 12.9 | 0.00 | 0.00 | 0.00 | 42 | 1018.1 |
| 20260507174513 | 8 | 317 | 4.8 | 14.5 | 0.00 | 0.00 | 0.00 | 40 | 1018.0 |
| 20260507173011 | 8 | 303 | 4.8 | 19.3 | 0.00 | 0.00 | 0.00 | 36 | 1017.8 |
| 20260507171504 | 9 | 302 | 8.0 | 24.1 | 0.00 | 0.00 | 0.00 | 36 | 1017.7 |
| 20260507170006 | 10 | 303 | 8.0 | 19.3 | 0.00 | 0.00 | 0.00 | 37 | 1017.5 |
| 20260507164501 | 10 | 316 | 9.7 | 22.5 | 0.00 | 0.00 | 0.00 | 36 | 1017.3 |
| 20260507163100 | 10 | 316 | 11.3 | 17.7 | 0.00 | 0.00 | 0.00 | 35 | 1017.1 |
| 20260507161604 | 10 | 313 | 12.9 | 20.9 | 0.00 | 0.00 | 0.00 | 33 | 1017.1 |
| 20260507160058 | 11 | 315 | 11.3 | 22.5 | 0.00 | 0.00 | 0.00 | 31 | 1016.9 |
| 20260507154556 | 11 | 317 | 9.7 | 24.1 | 0.00 | 0.00 | 0.00 | 30 | 1016.7 |
| 20260507153105 | 12 | 323 | 9.7 | 30.6 | 0.00 | 0.00 | 0.00 | 27 | 1016.6 |
| 20260507151554 | 12 | 317 | 9.7 | 22.5 | 0.00 | 0.00 | 0.00 | 28 | 1016.4 |
| 20260507150058 | 13 | 308 | 6.4 | 19.3 | 0.00 | 0.00 | 0.00 | 28 | 1016.4 |
| 20260507144553 | 13 | 319 | 6.4 | 14.5 | 0.00 | 0.00 | 0.00 | 28 | 1016.3 |
| 20260507143104 | 13 | 325 | 3.2 | 11.3 | 0.00 | 0.00 | 0.00 | 26 | 1016.2 |
| 20260507141552 | 13 | 266 | 3.2 | 8.0 | 0.00 | 0.00 | 0.00 | 24 | 1016.2 |
| 20260507140054 | 14 | 296 | 3.2 | 14.5 | 0.00 | 0.00 | 0.00 | 25 | 1016.2 |
| 20260507134552 | 13 | 325 | 0.0 | 16.1 | 0.00 | 0.00 | 0.00 | 23 | 1016.1 |
| 20260507133052 | 14 | 247 | 3.2 | 16.1 | 0.00 | 0.00 | 0.00 | 25 | 1016.0 |
| 20260507131552 | 14 | 290 | 1.6 | 6.4 | 0.00 | 0.00 | 0.00 | 22 | 1016.1 |
| 20260507124555 | 13 | 64 | 0.0 | 8.0 | 0.00 | 0.00 | 0.00 | 22 | 1016.1 |
| 20260507123048 | 13 | 311 | 3.2 | 12.9 | 0.00 | 0.00 | 0.00 | 22 | 1016.1 |
| 20260507121553 | 13 | 319 | 0.0 | 14.5 | 0.00 | 0.00 | 0.00 | 25 | 1016.1 |
| 20260507120047 | 13 | 333 | 3.2 | 14.5 | 0.00 | 0.00 | 0.00 | 27 | 1016.1 |
| 20260507114546 | 13 | 223 | 0.0 | 9.7 | 0.00 | 0.00 | 0.00 | 21 | 1016.1 |
| 20260507113049 | 12 | 277 | 0.0 | 14.5 | 0.00 | 0.00 | 0.00 | 21 | 1016.2 |
| 20260507111545 | 13 | 336 | 4.8 | 12.9 | 0.00 | 0.00 | 0.00 | 24 | 1016.2 |